Tracking 22124 objects as of 25-Jan-2021
HD Live streaming from Space Station
objects crossing your sky now

WESTFORD NEEDLES

Track WESTFORD NEEDLES now!
10-day predictions
WESTFORD NEEDLES is classified as:


NORAD ID: 20504
Int'l Code: 1963-014FD
Perigee: 563.5 km
Apogee: 6,345.6 km
Inclination: 84.6 °
Period: 161.5 minutes
Semi major axis: 9825 km
RCS: 0.1216 m2 (medium)
Launch date: May 9, 1963
Source: United States (US)
Launch site: AIR FORCE WESTERN TEST RANGE (AFWTR)
aabbcc
Your satellite tracking list
Your tracking list is empty




NASA's NSSDC Master Catalog

Two Line Element Set (TLE):
1 20504U 63014FD  21024.78523715  .00001523  00000-0  15634-2 0  9994
2 20504  84.5524  58.8807 2942376 222.5682 110.5854  8.91391535250631
Source of the keplerian elements: AFSPC